Olympics
Hurricane Ridge
Latest observation 09/03 17:00 PDT
| Time (PDT) | Temp °F 5250' | RH % 5250' | Min mph 5250' | Spd mph 5250' | Gust mph 5250' | Dir ° 5250' | Pcp1 in 5250' | PcpSum in 5250' | SnoHt in 5250' | SR W/m² 5250' |
|---|---|---|---|---|---|---|---|---|---|---|
| 09/03 17:00 | 42 | 93 | 0 | 1 | 6 | 64 | 0.01 | 0.41 | 2.1 | 192 |
| 09/03 16:00 | 41 | 95 | 0 | 2 | 8 | 84 | 0.01 | 0.40 | 2.6 | 228 |
| 09/03 15:00 | 40 | 96 | 0 | 2 | 6 | 120 | 0.04 | 0.39 | 2.7 | 199 |
| 09/03 14:00 | 39 | 98 | 0 | 0 | 2 | 88 | 0.06 | 0.35 | 3.0 | 95 |
| 09/03 13:00 | 41 | 96 | 0 | 1 | 7 | 214 | 0.00 | 0.29 | 3.9 | 230 |
| 09/03 12:00 | 47 | 83 | 0 | 3 | 8 | 252 | 0.00 | 0.29 | 1.9 | 665 |
| 09/03 11:00 | 45 | 93 | 0 | 3 | 7 | 260 | 0.00 | 0.29 | 1.9 | 418 |
| 09/03 10:00 | 42 | 96 | 0 | 4 | 7 | 248 | 0.00 | 0.29 | 2.4 | 240 |
| 09/03 09:00 | 40 | 98 | 0 | 2 | 6 | 246 | 0.00 | 0.29 | 2.5 | 98 |
| 09/03 08:00 | 38 | 99 | 0 | 1 | 3 | 240 | 0.00 | 0.29 | 2.6 | 22 |
| 09/03 07:00 | 37 | 99 | 2 | 4 | 7 | 236 | 0.00 | 0.29 | 2.3 | 5 |
| 09/03 06:00 | 36 | 99 | 0 | 2 | 7 | 246 | 0.01 | 0.29 | 2.7 | 0 |
| 09/03 05:00 | 36 | 99 | 1 | 6 | 11 | 250 | 0.04 | 0.28 | 2.5 | 0 |
| 09/03 04:00 | 37 | 99 | 3 | 7 | 14 | 246 | 0.01 | 0.24 | 2.7 | 0 |
| 09/03 03:00 | 37 | 99 | 5 | 9 | 14 | 252 | 0.00 | 0.23 | 2.7 | 0 |
| 09/03 02:00 | 38 | 99 | 4 | 9 | 14 | 248 | 0.00 | 0.23 | 2.6 | 0 |
| 09/03 01:00 | 38 | 99 | 3 | 8 | 15 | 248 | 0.00 | 0.23 | 2.4 | 0 |
| 09/03 00:00 | 38 | 99 | 4 | 8 | 19 | 255 | 0.00 | 0.23 | 2.7 | 0 |
| 09/02 23:00 | 38 | 98 | 5 | 10 | 16 | 251 | 0.00 | 0.23 | 2.6 | 0 |
| 09/02 22:00 | 37 | 98 | 7 | 11 | 18 | 253 | 0.00 | 0.23 | 2.6 | 0 |
| 09/02 21:00 | 37 | 98 | 7 | 12 | 19 | 247 | 0.00 | 0.23 | 2.8 | 0 |
| 09/02 20:00 | 36 | 98 | 6 | 11 | 23 | 264 | 0.00 | 0.23 | 2.4 | 19 |
| 09/02 19:00 | 38 | 98 | 7 | 13 | 24 | 265 | 0.00 | 0.23 | 2.6 | 43 |
| 09/02 18:00 | 41 | 98 | 10 | 16 | 32 | 264 | 0.00 | 0.23 | 2.5 | 101 |
| 09/02 17:00 | 42 | 98 | 6 | 13 | 28 | 252 | 0.04 | 0.23 | 2.5 | 150 |
| 09/02 16:00 | 41 | 97 | 6 | 10 | 16 | 247 | 0.08 | 0.19 | 2.8 | 169 |
| 09/02 15:00 | 42 | 95 | 4 | 7 | 13 | 254 | 0.02 | 0.11 | 2.2 | 134 |
| 09/02 14:00 | 45 | 88 | 3 | 9 | 25 | 250 | 0.01 | 0.09 | 1.5 | 247 |
| 09/02 13:00 | 45 | 91 | 7 | 13 | 22 | 250 | 0.01 | 0.08 | 1.9 | 299 |
| 09/02 12:00 | 45 | 90 | 6 | 12 | 20 | 248 | 0.00 | 0.07 | 1.5 | 280 |
| 09/02 11:00 | 44 | 92 | 5 | 10 | 20 | 248 | 0.00 | 0.07 | 1.5 | 174 |
| 09/02 10:00 | 42 | 92 | 7 | 13 | 23 | 251 | 0.00 | 0.07 | 1.4 | 100 |
| 09/02 09:00 | 42 | 92 | 7 | 12 | 23 | 251 | 0.00 | 0.07 | 1.4 | 50 |
| 09/02 08:00 | 41 | 91 | 7 | 13 | 25 | 252 | 0.00 | 0.07 | 1.3 | 34 |
| 09/02 07:00 | 41 | 95 | 6 | 11 | 26 | 256 | 0.00 | 0.07 | 1.3 | 7 |
| 09/02 06:00 | 41 | 96 | 6 | 11 | 18 | 254 | 0.00 | 0.07 | 1.5 | 0 |
| 09/02 05:00 | 42 | 96 | 5 | 11 | 17 | 247 | 0.00 | 0.07 | 1.4 | 0 |
| 09/02 04:00 | 42 | 95 | 6 | 11 | 18 | 251 | 0.00 | 0.07 | 1.4 | 0 |
| 09/02 03:00 | 42 | 97 | 6 | 10 | 18 | 258 | 0.00 | 0.07 | 1.4 | 0 |
| 09/02 02:00 | 42 | 97 | 4 | 10 | 21 | 257 | 0.00 | 0.07 | 1.7 | 0 |
| 09/02 01:00 | 43 | 97 | 5 | 8 | 13 | 258 | 0.00 | 0.07 | 1.4 | 0 |
| 09/02 00:00 | 43 | 96 | 4 | 9 | 16 | 252 | 0.00 | 0.07 | 1.2 | 0 |
| 09/01 23:00 | 43 | 96 | 5 | 8 | 17 | 253 | 0.00 | 0.07 | 1.3 | 0 |
| 09/01 22:00 | 44 | 96 | 4 | 8 | 12 | 245 | 0.00 | 0.07 | 1.2 | 0 |
| 09/01 21:00 | 45 | 94 | 3 | 6 | 11 | 243 | 0.00 | 0.07 | 1.1 | 0 |
| 09/01 20:00 | 46 | 93 | 1 | 4 | 10 | 251 | 0.00 | 0.07 | 1.5 | 8 |
| 09/01 19:00 | 47 | 91 | 0 | 4 | 10 | 261 | 0.00 | 0.07 | 1.1 | 64 |
| 09/01 18:00 | 49 | 87 | 0 | 4 | 12 | 262 | 0.00 | 0.07 | 1.2 | 78 |
| 09/01 17:00 | 51 | 81 | 1 | 5 | 10 | 265 | 0.00 | 0.07 | 0.9 | 136 |
| 09/01 16:00 | 57 | 70 | 0 | 5 | 12 | 264 | 0.00 | 0.07 | 1.1 | 244 |
| 09/01 15:00 | 56 | 70 | 0 | 2 | 8 | 262 | 0.00 | 0.07 | 1.4 | 306 |
| 09/01 14:00 | 52 | 83 | 0 | 0 | 3 | 220 | 0.00 | 0.07 | 1.1 | 275 |
| 09/01 13:00 | 54 | 78 | 0 | 1 | 4 | 247 | 0.00 | 0.07 | 1.1 | 353 |
| 09/01 12:00 | 56 | 70 | 0 | 1 | 4 | 239 | 0.00 | 0.07 | 1.7 | 321 |
| 09/01 11:00 | 54 | 74 | 0 | 1 | 3 | 241 | 0.00 | 0.07 | 1.0 | 193 |
| 09/01 10:00 | 51 | 78 | 0 | 1 | 3 | 239 | 0.00 | 0.07 | 1.2 | 92 |
| 09/01 09:00 | 52 | 75 | 0 | 0 | 3 | 240 | 0.00 | 0.07 | 1.4 | 99 |
| 09/01 08:00 | 50 | 77 | 0 | 4 | 8 | 242 | 0.00 | 0.07 | 1.5 | 33 |
| 09/01 07:00 | 50 | 77 | 1 | 4 | 6 | 247 | 0.00 | 0.07 | 1.3 | 4 |
| 09/01 06:00 | 50 | 77 | 1 | 4 | 6 | 252 | 0.00 | 0.07 | 1.5 | 0 |
| 09/01 05:00 | 50 | 75 | 2 | 5 | 8 | 243 | 0.00 | 0.07 | 1.5 | 0 |
| 09/01 04:00 | 50 | 72 | 1 | 5 | 9 | 236 | 0.00 | 0.07 | 1.5 | 0 |
| 09/01 03:00 | 51 | 66 | 0 | 4 | 7 | 245 | 0.00 | 0.07 | 1.5 | 0 |
| 09/01 02:00 | 52 | 64 | 2 | 4 | 8 | 245 | 0.00 | 0.07 | 1.2 | 0 |
| 09/01 01:00 | 51 | 66 | 1 | 4 | 8 | 247 | 0.00 | 0.07 | 1.2 | 0 |
| 09/01 00:00 | 52 | 72 | 0 | 4 | 8 | 243 | 0.00 | 0.07 | 1.1 | 0 |
| 08/31 23:00 | 51 | 79 | 0 | 2 | 5 | 237 | 0.00 | 0.07 | 1.6 | 0 |
| 08/31 22:00 | 52 | 79 | 0 | 2 | 5 | 234 | 0.00 | 0.07 | 1.3 | 0 |
| 08/31 21:00 | 53 | 75 | 0 | 2 | 4 | 231 | 0.00 | 0.07 | 1.3 | 1 |
| 08/31 20:00 | 55 | 70 | 0 | 0 | 0 | 251 | 0.00 | 0.07 | 1.3 | 16 |
| 08/31 19:00 | 57 | 69 | 0 | 0 | 0 | 326 | 0.00 | 0.07 | 1.0 | 49 |
| 08/31 18:00 | 57 | 66 | 0 | 0 | 0 | 75 | 0.00 | 0.07 | 1.1 | 136 |
| 08/31 17:00 | 56 | 69 | 0 | 0 | 0 | 217 | 0.00 | 0.07 | 0.8 | 219 |
| 08/31 16:00 | 63 | 52 | 0 | 0 | 3 | 242 | 0.00 | 0.07 | 1.1 | 208 |
| 08/31 15:00 | 64 | 50 | 0 | 1 | 6 | 248 | 0.00 | 0.07 | 0.7 | 444 |
| 08/31 14:00 | 63 | 50 | 0 | 3 | 7 | 252 | 0.00 | 0.07 | 0.8 | 706 |
| 08/31 13:00 | 63 | 52 | 0 | 2 | 6 | 250 | 0.00 | 0.07 | 0.7 | 851 |
| 08/31 12:00 | 61 | 56 | 0 | 1 | 4 | 249 | 0.00 | 0.07 | 0.9 | 775 |
| 08/31 11:00 | 56 | 64 | 0 | 1 | 6 | 235 | 0.00 | 0.07 | 1.5 | 634 |
| 08/31 10:00 | 54 | 66 | 0 | 1 | 3 | 238 | 0.00 | 0.07 | 1.4 | 372 |
| 08/31 09:00 | 54 | 65 | 0 | 1 | 4 | 231 | 0.00 | 0.07 | 1.6 | 289 |
| 08/31 08:00 | 47 | 82 | 0 | 3 | 6 | 219 | 0.00 | 0.07 | 1.8 | 52 |
| 08/31 07:00 | 45 | 88 | 1 | 4 | 7 | 206 | 0.00 | 0.07 | 1.6 | 6 |
| 08/31 06:00 | 45 | 85 | 0 | 2 | 6 | 193 | 0.00 | 0.07 | 2.1 | 0 |
| 08/31 05:00 | 45 | 88 | 0 | 1 | 4 | 187 | 0.00 | 0.07 | 2.1 | 0 |
| 08/31 04:00 | 44 | 92 | 0 | 0 | 0 | 162 | 0.00 | 0.07 | 1.8 | 0 |
| 08/31 03:00 | 44 | 94 | 0 | 0 | 0 | 202 | 0.00 | 0.07 | 1.9 | 0 |
| 08/31 02:00 | 44 | 98 | 0 | 0 | 0 | 226 | 0.00 | 0.07 | 2.1 | 0 |
| 08/31 01:00 | 45 | 99 | 0 | 0 | 0 | 235 | 0.00 | 0.07 | 1.8 | 0 |
| 08/31 00:00 | 45 | 99 | 0 | 1 | 4 | 222 | 0.00 | 0.07 | 1.4 | 0 |
| 08/30 23:00 | 44 | 99 | 0 | 1 | 5 | 208 | 0.00 | 0.07 | 1.6 | 0 |
| 08/30 22:00 | 44 | 98 | 0 | 0 | 4 | 135 | 0.00 | 0.07 | 1.9 | 0 |
| 08/30 21:00 | 45 | 99 | 0 | 0 | 1 | 94 | 0.00 | 0.07 | 2.5 | 0 |
| 08/30 20:00 | 45 | 98 | 0 | 0 | 0 | 76 | 0.00 | 0.07 | 1.8 | 15 |
| 08/30 19:00 | 46 | 96 | 0 | 0 | 0 | 80 | 0.00 | 0.07 | 1.9 | 50 |
| 08/30 18:00 | 47 | 95 | 0 | 0 | 0 | 72 | 0.00 | 0.07 | 1.1 | 80 |
| 08/30 17:00 | 47 | 92 | 0 | 0 | 0 | 54 | 0.00 | 0.07 | 1.5 | 90 |
| 08/30 16:00 | 49 | 85 | 0 | 0 | 1 | 65 | 0.00 | 0.07 | 1.3 | 170 |
| 08/30 15:00 | 49 | 87 | 0 | 0 | 0 | 67 | 0.00 | 0.07 | 1.0 | 220 |
| 08/30 14:00 | 51 | 73 | 0 | 0 | 2 | 106 | 0.00 | 0.07 | 1.1 | 294 |
| 08/30 13:00 | 51 | 69 | 0 | 0 | 2 | 49 | 0.00 | 0.07 | 1.3 | 321 |
| 08/30 12:00 | 50 | 71 | 0 | 0 | 3 | 59 | 0.00 | 0.07 | 1.3 | 334 |
| 08/30 11:00 | 46 | 79 | 0 | 0 | 1 | 329 | 0.00 | 0.07 | 1.3 | 246 |
| 08/30 10:00 | 46 | 81 | 0 | 0 | 0 | 3 | 0.00 | 0.07 | 1.8 | 304 |
| 08/30 09:00 | 42 | 89 | 0 | 0 | 1 | 342 | 0.00 | 0.07 | 1.8 | 166 |
| 08/30 08:00 | 40 | 96 | 0 | 2 | 5 | 41 | 0.00 | 0.07 | 2.0 | 52 |
| 08/30 07:00 | 39 | 97 | 0 | 3 | 7 | 45 | 0.00 | 0.07 | 2.1 | 7 |
| 08/30 06:00 | 38 | 97 | 0 | 1 | 4 | 32 | 0.00 | 0.07 | 2.1 | 0 |
| 08/30 05:00 | 37 | 97 | 0 | 1 | 6 | 57 | 0.00 | 0.07 | 2.3 | 0 |
| 08/30 04:00 | 38 | 98 | 0 | 2 | 6 | 278 | 0.00 | 0.07 | 2.1 | 0 |
| 08/30 03:00 | 38 | 98 | 2 | 3 | 6 | 251 | 0.00 | 0.07 | 2.7 | 0 |
| 08/30 02:00 | 38 | 98 | 3 | 4 | 6 | 249 | 0.00 | 0.07 | 1.9 | 0 |
| 08/30 01:00 | 38 | 96 | 3 | 5 | 8 | 246 | 0.00 | 0.07 | 2.4 | 0 |
| 08/30 00:00 | 39 | 96 | 3 | 5 | 6 | 246 | 0.00 | 0.07 | 1.9 | 0 |
| 08/29 23:00 | 39 | 94 | 1 | 4 | 5 | 255 | 0.00 | 0.07 | 1.8 | 0 |
| 08/29 22:00 | 39 | 88 | 1 | 4 | 7 | 271 | 0.00 | 0.07 | 1.6 | 0 |
| 08/29 21:00 | 40 | 82 | 0 | 2 | 7 | 311 | 0.00 | 0.07 | 1.5 | 1 |
| 08/29 20:00 | 42 | 75 | 0 | 2 | 8 | 38 | 0.00 | 0.07 | 1.4 | 12 |
| 08/29 19:00 | 45 | 71 | 0 | 4 | 12 | 44 | 0.00 | 0.07 | 1.4 | 21 |
| 08/29 18:00 | 47 | 69 | 0 | 2 | 8 | 21 | 0.00 | 0.07 | 1.3 | 159 |
| 08/29 17:00 | 51 | 62 | 0 | 4 | 10 | 6 | 0.00 | 0.07 | 1.1 | 306 |
| 08/29 16:00 | 49 | 61 | 0 | 3 | 11 | 14 | 0.00 | 0.07 | 0.9 | 167 |
| 08/29 15:00 | 51 | 56 | 0 | 3 | 12 | 347 | 0.00 | 0.07 | 1.1 | 430 |
| 08/29 14:00 | 51 | 64 | 0 | 3 | 11 | 11 | 0.00 | 0.07 | 0.9 | 759 |
| 08/29 13:00 | 50 | 71 | 0 | 2 | 9 | 355 | 0.00 | 0.07 | 1.3 | 590 |
| 08/29 12:00 | 46 | 76 | 0 | 2 | 6 | 314 | 0.00 | 0.07 | 2.1 | 499 |
| 08/29 11:00 | 43 | 82 | 0 | 1 | 4 | 320 | 0.00 | 0.07 | 1.8 | 565 |
| 08/29 10:00 | 42 | 88 | 0 | 1 | 5 | 341 | 0.00 | 0.07 | 2.0 | 350 |
| 08/29 09:00 | 42 | 83 | 0 | 0 | 3 | 343 | 0.00 | 0.07 | 2.0 | 272 |
| 08/29 08:00 | 37 | 97 | 0 | 1 | 7 | 17 | 0.00 | 0.07 | 2.1 | 50 |
| 08/29 07:00 | 37 | 98 | 0 | 3 | 10 | 55 | 0.00 | 0.07 | 2.1 | 5 |
| 08/29 06:00 | 37 | 98 | 1 | 4 | 8 | 52 | 0.00 | 0.07 | 1.9 | 0 |
| 08/29 05:00 | 37 | 97 | 0 | 4 | 11 | 56 | 0.02 | 0.07 | 1.7 | 0 |
| 08/29 04:00 | 39 | 96 | 0 | 3 | 12 | 40 | 0.04 | 0.05 | 2.1 | 0 |
| 08/29 03:00 | 40 | 95 | 0 | 0 | 4 | 351 | 0.00 | 0.01 | 1.7 | 0 |
| 08/29 02:00 | 41 | 95 | 0 | 0 | 3 | 17 | 0.01 | 0.01 | 1.9 | 0 |
| 08/29 01:00 | 41 | 94 | 0 | 1 | 6 | 13 | 0.00 | 0.00 | 1.6 | 0 |
| 08/29 00:00 | 41 | 94 | 0 | 4 | 10 | 304 | 0.00 | 0.00 | 1.3 | 0 |
| 08/28 23:00 | 42 | 93 | 0 | 5 | 10 | 282 | 0.00 | 0.00 | 1.3 | 0 |
| 08/28 22:00 | 43 | 93 | 0 | 3 | 9 | 286 | 0.00 | 0.00 | 1.1 | 0 |
| 08/28 21:00 | 43 | 93 | 0 | 2 | 7 | 316 | 0.00 | 0.00 | 1.4 | 0 |
| 08/28 20:00 | 44 | 91 | 0 | 2 | 8 | 17 | 0.00 | 0.00 | 1.2 | 8 |
| 08/28 19:00 | 46 | 87 | 0 | 0 | 3 | 10 | 0.00 | 0.00 | 1.3 | 39 |
| 08/28 18:00 | 49 | 82 | 0 | 0 | 3 | 345 | 0.00 | 0.00 | 1.1 | 241 |
| 08/28 17:00 | 47 | 95 | 0 | 0 | 4 | 360 | 0.00 | 0.00 | 2.0 | 303 |
| 08/28 16:00 | 49 | 91 | 0 | 0 | 3 | 5 | 0.00 | 0.00 | 1.3 | 254 |
| 08/28 15:00 | 47 | 94 | 0 | 0 | 3 | 73 | 0.00 | 0.00 | 1.6 | 254 |
| 08/28 14:00 | 51 | 82 | 0 | 0 | 6 | 108 | 0.00 | 0.00 | 1.0 | 858 |
| 08/28 13:00 | 54 | 70 | 0 | 1 | 5 | 308 | 0.00 | 0.00 | 0.9 | 857 |
| 08/28 12:00 | 52 | 74 | 0 | 2 | 8 | 272 | 0.00 | 0.00 | 0.8 | 426 |
| 08/28 11:00 | 50 | 80 | 0 | 2 | 6 | 244 | 0.00 | 0.00 | 1.1 | 428 |
| 08/28 10:00 | 48 | 81 | 0 | 2 | 5 | 248 | 0.00 | 0.00 | 1.6 | 429 |
| 08/28 09:00 | 47 | 84 | 0 | 2 | 7 | 228 | 0.00 | 0.00 | 1.8 | 296 |
| 08/28 08:00 | 43 | 98 | 0 | 4 | 7 | 229 | 0.00 | 0.00 | 1.9 | 44 |
| 08/28 07:00 | 42 | 98 | 1 | 4 | 7 | 238 | 0.00 | 0.00 | 1.7 | 6 |
| 08/28 06:00 | 43 | 96 | 0 | 0 | 3 | 245 | 0.00 | 0.00 | 1.7 | 0 |
| 08/28 05:00 | 43 | 93 | 0 | 0 | 0 | 223 | 0.00 | 0.00 | 1.7 | 0 |
| 08/28 04:00 | 44 | 81 | 0 | 0 | 0 | 168 | 0.00 | 0.00 | 1.7 | 0 |
| 08/28 03:00 | 44 | 83 | 0 | 0 | 0 | 194 | 0.00 | 0.00 | 1.9 | 0 |
| 08/28 02:00 | 44 | 88 | 0 | 0 | 0 | 207 | 0.00 | 0.00 | 1.6 | 0 |
| 08/28 01:00 | 44 | 98 | 0 | 1 | 4 | 219 | 0.00 | 0.00 | 1.7 | 0 |
| 08/28 00:00 | 44 | 98 | 1 | 4 | 6 | 235 | 0.00 | 0.00 | 1.3 | 0 |
| 08/27 23:00 | 44 | 98 | 4 | 5 | 7 | 235 | 0.00 | 0.00 | 1.5 | 0 |
| 08/27 22:00 | 45 | 96 | 0 | 3 | 5 | 243 | 0.00 | 0.00 | 1.4 | 0 |
| 08/27 21:00 | 46 | 94 | 0 | 2 | 5 | 257 | 0.00 | 0.00 | 1.2 | 1 |
| 08/27 20:00 | 47 | 92 | 0 | 2 | 8 | 259 | 0.00 | 0.00 | 1.0 | 22 |
| 08/27 19:00 | 49 | 87 | 0 | 1 | 9 | 271 | 0.00 | 0.00 | 1.4 | 88 |
| 08/27 18:00 | 48 | 88 | 0 | 1 | 4 | 286 | 0.00 | 0.00 | 1.2 | 62 |

